Theta_e
344 343 346 345 344 343 343 344 346 346 347 347 347 346 346 348 348 347 347 345 343 342 340 340 339 338 336 334 334 335 330 335
341 341 343 342 342 341 342 343 343 345 345 345 344 344 346 346 346 346 345 343 342 341 339 338 338 336 334 334 333 335 330 329
341 341 341 340 339 342 343 344 343 343 344 343 341 342 342 343 342 344 343 341 340 339 338 337 336 335 335 335 336 331 330 329
339 340 340 340 342 339 337 340 340 339 340 339 338 337 338 341 341 342 341 339 339 338 338 336 335 330 330 333 330 331 330 329
338 338 339 339 340 340 339 340 339 338 335 336 334 337 341 341 339 339 336 338 334 335 335 333 332 331 331 330 332 333 331 331
335 337 338 339 340 339 338 338 338 338 338 333 333 336 336 337 337 338 336 333 330 332 331 331 331 331 331 331 332 333 333 334
333 336 337 338 338 338 338 337 337 336 337 335 332 332 334 335 335 336 336 332 330 329 330 331 330 330 331 331 331 332 333 334
331 334 336 337 337 336 336 336 335 336 336 336 332 331 331 331 330 334 334 332 330 329 328 329 329 330 329 330 330 331 332 333
331 333 336 336 336 337 336 336 336 335 335 334 333 330 329 330 329 329 332 330 330 329 328 328 327 328 328 329 329 330 330 331
331 334 334 335 335 336 335 335 335 334 334 334 333 331 329 326 329 329 329 329 329 328 327 326 325 325 326 327 328 329 330 330
327 331 332 333 334 334 334 333 333 333 333 333 333 332 330 329 327 329 328 328 329 329 326 326 324 324 324 326 326 327 328 331
327 329 331 332 332 331 331 330 332 332 332 332 332 333 331 330 328 327 329 329 327 326 326 324 324 324 325 325 325 327 327 328
329 327 328 331 329 328 328 327 329 329 330 331 331 333 333 330 329 327 329 329 329 327 326 323 322 322 321 320 321 325 326 327
330 329 328 329 329 329 328 327 327 329 329 329 330 331 333 332 330 328 328 328 328 327 326 322 324 322 320 318 317 320 322 324
331 331 329 329 329 328 326 324 324 325 326 327 328 330 331 332 332 330 330 330 328 327 327 325 324 321 323 322 315 314 315 319
333 333 332 331 329 326 325 325 323 325 325 327 327 329 329 331 331 331 330 330 329 329 329 328 327 323 321 325 324 319 316 316
330 333 333 333 331 329 326 325 326 326 327 326 328 328 330 330 330 330 330 330 330 329 329 328 328 328 324 320 323 324 317 319
303 329 333 334 333 330 328 326 326 326 326 327 328 329 329 330 331 331 331 330 330 329 329 328 329 328 329 326 325 321 321 319
312 313 330 333 333 332 330 329 327 327 327 328 329 329 329 329 330 331 331 331 331 330 329 328 327 327 327 327 326 327 328 322
308 315 322 332 333 334 333 331 330 329 329 331 331 331 331 332 331 332 331 332 331 329 329 329 329 327 327 327 327 327 327 326
Wind_Speed
12 10 11 12 12 14 13 13 14 14 14 15 13 11 11 10 11 11 11 11 11 12 11 11 10 8 6 5 2 2 3 3
14 9 9 8 8 11 13 13 12 13 14 14 14 13 12 11 11 11 11 11 11 11 10 10 9 8 6 3 1 1 2 3
14 10 9 8 7 8 11 13 12 11 11 12 11 6 7 9 8 10 10 9 10 9 9 8 7 5 2 0 1 1 2 2
15 12 11 10 7 7 6 6 5 5 5 6 4 5 5 6 7 10 10 9 9 9 9 7 5 2 1 0 1 2 2 3
14 12 11 12 8 7 5 4 5 4 5 6 5 4 5 5 3 3 4 7 4 4 4 3 4 3 2 2 2 2 2 2
13 13 12 13 8 8 9 8 8 7 8 6 5 5 7 6 5 6 5 3 5 4 3 4 4 3 3 3 4 3 2 2
13 14 15 15 13 9 10 9 9 8 9 8 6 5 8 7 6 6 6 3 4 4 4 4 4 4 4 4 4 5 5 3
9 13 14 16 15 12 10 9 8 8 9 10 9 7 6 5 5 7 6 4 3 4 4 4 4 3 5 5 5 4 5 5
12 12 14 17 18 14 10 9 10 10 9 10 11 9 8 8 5 5 5 4 5 3 3 2 3 3 6 4 4 5 5 6
14 12 16 17 16 12 9 9 9 8 7 7 11 10 10 7 6 6 4 4 4 3 3 3 4 3 4 4 4 4 6 6
15 16 15 16 13 9 9 9 8 8 7 7 10 11 11 9 8 6 6 5 6 5 4 4 4 4 4 5 5 6 7 7
17 16 15 14 9 6 6 6 8 7 8 9 11 10 11 10 7 7 8 6 5 4 6 4 4 4 4 6 5 6 5 7
18 18 18 13 12 12 11 12 9 8 9 12 12 12 12 12 8 7 8 9 10 9 5 6 4 3 1 3 4 9 10 10
20 20 20 19 14 12 9 9 9 9 9 11 14 15 14 13 13 10 11 8 8 9 9 3 4 6 3 1 4 5 3 7
21 23 22 20 21 12 6 3 2 7 10 12 15 16 16 16 15 12 12 11 10 10 11 11 7 4 7 4 1 5 3 2
21 21 22 21 21 16 21 17 14 14 14 11 12 16 18 17 16 15 13 11 13 11 10 10 9 7 3 8 4 4 3 7
15 20 20 21 20 22 18 17 15 10 9 12 14 13 18 17 17 16 16 12 14 14 11 13 10 9 7 4 7 7 3 8
14 17 22 21 21 24 23 24 21 14 12 12 12 12 12 17 18 17 16 15 15 13 13 14 14 11 10 9 9 5 7 7
16 14 20 20 22 23 25 24 22 20 17 14 13 11 11 17 18 17 14 16 14 12 12 12 13 12 14 12 9 12 10 5
25 22 10 14 17 20 19 20 13 14 14 11 12 13 12 11 14 14 15 12 12 11 10 11 12 12 16 13 10 10 9 10
Wind_Direction
162 161 165 159 151 148 148 152 150 148 145 141 140 139 137 134 133 136 136 140 144 145 147 151 156 165 169 174 168 110 111 176
168 160 159 158 157 153 152 154 154 155 153 150 148 150 150 148 150 152 153 154 155 155 160 165 168 173 177 179 50 10 210 225
173 166 159 154 149 164 159 159 159 159 161 157 150 153 156 159 162 165 165 164 164 163 168 170 167 171 175 344 344 277 266 238
178 173 165 159 162 160 154 165 163 159 154 157 149 147 154 159 166 173 174 174 178 176 176 177 168 167 196 328 239 272 275 274
177 173 169 169 173 169 166 164 166 162 161 157 151 145 167 173 161 176 173 185 181 181 188 191 190 182 199 228 259 270 272 273
180 178 176 184 176 176 178 179 181 186 190 163 161 171 184 187 189 192 190 176 186 191 194 199 215 223 219 235 249 259 274 281
189 182 185 188 189 179 181 185 186 183 189 184 166 171 186 186 191 192 202 181 185 197 207 213 228 238 244 236 245 252 259 269
202 197 189 190 191 189 187 183 182 183 191 193 179 176 176 184 179 195 203 196 182 191 206 223 242 242 265 256 254 253 262 263
201 201 200 198 198 191 189 187 185 192 194 187 185 180 180 180 188 197 201 181 182 190 211 221 256 260 262 264 269 263 248 248
183 198 204 204 202 195 189 188 190 191 188 187 187 188 182 176 188 200 184 174 185 189 192 220 235 232 264 268 268 272 271 264
186 195 201 206 206 196 193 190 192 193 184 187 195 193 190 190 194 193 173 187 197 199 207 198 208 229 243 259 259 259 264 267
184 188 194 192 196 192 197 190 202 196 197 197 189 197 194 195 198 185 177 188 200 193 204 196 202 213 244 260 254 255 246 246
198 188 188 182 193 194 202 205 202 201 201 201 198 197 193 195 201 189 193 199 204 200 195 202 225 148 16 300 265 245 248 244
199 200 192 192 195 203 205 199 214 210 204 204 201 198 197 198 201 198 196 202 202 191 194 185 210 171 180 140 301 313 270 236
203 202 198 198 201 186 181 164 171 199 210 209 209 200 199 202 204 203 199 202 208 201 198 198 211 190 196 173 217 240 314 306
214 207 201 203 194 193 195 200 207 218 216 214 208 203 203 203 204 203 200 201 210 205 198 203 200 203 198 231 247 155 229 309
226 214 209 203 196 199 198 204 214 213 215 216 210 203 207 205 205 202 205 206 213 209 196 200 203 213 201 157 221 227 200 236
292 227 214 204 198 201 203 209 209 204 202 206 210 204 204 209 205 207 207 208 208 205 201 199 205 211 216 203 206 185 205 204
343 293 220 207 204 201 206 211 211 211 203 202 199 211 208 211 206 205 206 211 209 205 204 206 204 207 209 218 213 226 229 203
8 356 287 209 211 215 216 214 213 221 216 210 207 202 211 204 206 214 217 213 208 197 202 212 210 213 215 215 218 222 219 219